Regional Weather Roundup
Issued by NWS Newport/Morehead, NC

Current Version | Previous Version | Graphics & Text | Print | Product List | Glossary On
Versions: 1 2 3 4 5 6 7 8 9 10 11 12 13 14 15 16 17 18 19 20 21 22 23 24 25 26 27 28 29 30 31 32 33 34 35 36 37 38 39 40 41 42 43 44 45 46 47 48 49 50
000 ASUS42 KMHX 220124 RWRMHX WEATHER ROUNDUP FOR EASTERN NORTH CAROLINA NATIONAL WEATHER SERVICE NEWPORT/MOREHEAD CITY NC 900 PM EDT THU MAY 21 2015 NOTE: "FAIR" INDICATES FEW OR NO CLOUDS BELOW 12,000 FEET WITH NO SIGNIFICANT WEATHER AND/OR OBSTRUCTIONS TO VISIBILITY NCZ015>017-031-032-045>047-102-103-220200- NORTH COAST CITY SKY/WX TMP DP RH WIND PRES REMARKS EDENTON CLOUDY 60 58 91 N13 29.87R ELIZABETH CITY CLOUDY 60 57 89 N22G29 29.85R KITTY HAWK RAIN 65 65 99 NW16G24 29.79R MANTEO DRIZZLE 64 64 97 NW12G24 29.81R $$ NCZ045>047-081-094-103-104-220200- CENTRAL COAST CITY SKY/WX TMP DP RH WIND PRES REMARKS FRISCO LGT RAIN 69 67 93 NW17G28 29.78S SWANQUARTER N/A 64 N/A N/A NW9G22 29.82R $$ NCZ095-097-098-100-101-220200- SOUTHERN COAST CITY SKY/WX TMP DP RH WIND PRES REMARKS BEAUFORT CLOUDY 67 65 93 NW20 29.85R CEDAR ISLAND N/A 68 N/A N/A W25G31 29.85S JACKSONVILLE PTCLDY 65 61 87 N13 29.87R PINEY ISLAND CLOUDY N/A N/A N/A NW21G30 29.84R WILMINGTON CLEAR 69 65 86 N12 29.86R $$ NCZ011>013-027>030-043-044-078>080-089-090>093-098-220200- COASTAL PLAIN CITY SKY/WX TMP DP RH WIND PRES REMARKS AHOSKIE CLOUDY 57 55 90 N7 29.90R CLINTON CLEAR 66 62 87 N6 29.89R ELIZABETHTOWN CLEAR 67 64 89 CALM 29.88R GOLDSBORO PTCLDY 63 58 83 N8 29.87R GREENVILLE CLOUDY 61 59 94 N8 29.91R HAVELOCK MOCLDY 65 60 84 NW15 29.88R KENANSVILLE CLEAR 63 59 88 N5 29.90R KINSTON CLEAR 61 57 88 NW6 29.90R NEW BERN PTCLDY 63 59 87 NW9 29.89R RICHLANDS CLEAR 63 57 82 NW3 29.89R ROCKY MOUNT CLOUDY 62 57 83 N10 29.90R WASHINGTON CLOUDY N/A N/A N/A N6 29.88R WHITEVILLE CLEAR 71 64 78 NE6 29.85S $$ AMZ130-135-150-152-154-156-158-170-250-252-270-ANZ085-086-088-633-658-670-220200- MARINE OBSERVATIONS STATION/POSITION TIME TEMP WIND PRES WAVE SWELL AIR SEA DIR/SP/G HT/PER HT/PER (UTC) (F) (DEG/KT/KT) (MB) (FT/S) (FT/S) CHESAPEAKE LIGHT 0100 56 360/ 31/ 34 1010.2 64 E VA BEACH 0050 67 62 180/ 17/ 19 1005.4 4/ 5 2/ 9 DUCK 0100 61 66 340/ 27/ 33 1007.9 2 E DUCK 0011 68 N/A 3/ 5 OREGON INLET 0100 67 73 300/ 19/ 25 1008.3 13E OREGON INLT 0100 66 N/A 4/ 6 HATTERAS CG 0100 71 73 300/ 24/ 26 1008.2 DIAMOND BUOY 0050 72 77 270/ 21/ 27 1007.6 4/ 8 2/ 8 CAPE LOOKOUT 0100 69 320/ 18/ 22 1010.2 BEAUFORT LAB 0100 67 76 330/ 13/ 20 1010.2 27 SE WRIGHTSVLE 0100 70 78 360/ 21/ 25 N/A 5 SE WRIGHTSVLE 0008 75 77 340/ 19/ 25 1009.9 225 S CAPE HAT 0050 76 75 220/ 16/ 19 1012.7 4/ 6 2/ 8 41 SE CHARLESTON 0050 78 76 220/ 14/ 17 1010.3 4/ 5 2/ 8 $$

USA.gov is the U.S. government's official web portal to all federal, state and local government web resources and services.